Location: Vallejo Observatory
(38.1221°N, 122.2109°W)
Time: 01:34:01
(UTC-07:00)

Daily predictions for brighter satellites

Satellite Brightness Start Highest point End
(mag) Time Altitude Azimuth Time Altitude Azimuth Time Altitude Azimuth
SL-16 R/B 4.4 00:49:49 20° NNW 00:49:49 20° NNW 00:52:39 10° N
Cosmos 2360 Rocket 4.4 01:11:39 21° N 01:11:39 21° N 01:13:49 10° N
Cosmos 2219 Rocket 4.4 01:35:20 21° NNE 01:35:20 21° NNE 01:37:04 10° NNE
Cosmos 2333 Rocket 4.3 01:39:45 22° NNE 01:39:45 22° NNE 01:41:43 10° NNE
Cosmos 2237 Rocket 4.3 01:48:41 23° NNE 01:48:41 23° NNE 01:50:43 10° NNE
ATLAS 3B R/B 3.4 02:13:33 54° NNE 02:13:33 54° NNE 02:19:06 10° NNE
Cosmos 2278 Rocket 4.4 02:15:27 10° NNW 02:16:51 18° NNW 02:16:51 18° NNW
CZ-4C R/B 4.1 02:26:34 23° ENE 02:26:34 23° ENE 02:29:01 10° NE
COSMOS 2455 4.2 02:33:36 33° N 02:33:36 33° N 02:37:08 10° NNE
SL-16 R/B 4.2 02:48:06 20° ESE 02:50:45 27° ENE 02:55:49 10° N
USA 238 DEB 3.9 02:58:47 67° NNE 02:58:47 67° NNE 03:04:49 10° NNE
USA 238 3.9 02:58:54 67° NNE 02:58:54 67° NNE 03:04:56 10° NNE
CZ-3A R/B 3.9 03:00:05 54° SSE 03:01:55 60° ESE 03:42:38 10° NE
USA 234 3.5 02:56:23 10° NE 03:01:55 64° ENE 03:01:55 64° ENE
CZ-2D R/B 3.7 03:05:27 10° NE 03:09:38 28° E 03:09:38 28° E
NOSS 3-2 (A) 4.0 03:16:04 51° E 03:16:04 51° E 03:21:39 10° NE
Cosmos 2219 Rocket 4.4 03:17:03 14° NW 03:17:03 14° NW 03:19:05 10° NNW
Cosmos 2333 Rocket 4.2 03:21:45 17° NW 03:21:45 17° NW 03:24:39 10° N
Cosmos 1553 Rocket 4.1 03:22:00 70° NE 03:22:00 70° NE 03:27:32 10° N
SL-16 R/B 3.4 03:23:49 35° NNW 03:23:49 35° NNW 03:27:40 10° N
Cosmos 1745 Rocket 4.2 03:20:29 10° N 03:26:50 65° E 03:27:20 63° ESE
Cosmos 2237 Rocket 4.2 03:30:31 17° NW 03:30:31 17° NW 03:33:22 10° NNW
NOSS 3-2 (C) 3.8 03:30:25 55° ESE 03:30:25 55° ESE 03:36:38 10° NE
IRAS Rocket 4.5 03:35:20 10° N 03:40:09 62° NNW 03:40:09 62° NNW
SL-08 R/B 4.4 03:34:54 10° N 03:40:27 74° NNW 03:40:27 74° NNW
ADEOS 4.1 03:42:29 10° N 03:46:34 50° NNW 03:46:34 50° NNW
ERS-2 4.4 03:44:05 10° N 03:45:30 22° N 03:45:30 22° N
ATLAS CENTAUR R/B 3.9 03:44:43 10° N 03:48:05 21° NE 03:51:14 10° E
Spot 4 Rocket 4.5 03:45:05 10° N 03:49:13 53° NNW 03:49:13 53° NNW
IRS-1D 3.6 03:46:01 10° NNE 03:50:53 78° NE 03:50:53 78° NE
Resurs 1-4 Rocket 2.1 03:49:13 10° NNE 03:54:30 77° ESE 03:54:33 77° ESE
Cosmos 1707 Rocket 4.2 03:56:22 53° NNE 03:56:22 53° NNE 03:59:50 10° N
ATLAS 3B R/B 4.4 04:00:48 19° WNW 04:03:21 22° NW 04:08:55 10° N
Cosmos 1603 4.0 04:04:38 50° WNW 04:04:38 50° WNW 04:10:02 10° NNE
ARIANE 5 R/B 2.6 04:01:38 10° N 04:06:34 63° WNW 04:06:34 63° WNW
Meteor 2-3 Rocket 3.7 04:03:22 10° N 04:09:10 84° E 04:11:13 42° SSE
ATLAS 5 CENTAUR R/B 3.0 04:09:00 29° SE 04:10:05 33° ESE 04:14:35 10° NE
Cosmos 883 Rocket 4.3 04:09:17 57° S 04:10:40 87° W 04:16:49 10° N
Okean O Rocket 3.0 04:07:31 10° NNE 04:11:37 35° E 04:13:19 26° SE
CZ-4C R/B 3.2 04:11:45 30° NW 04:12:16 31° NW 04:17:33 10° NNE
Cosmos 1892 3.7 04:08:48 10° N 04:12:30 44° E 04:12:57 41° ESE
Cosmos 1331 Rocket 4.2 04:08:07 10° NNW 04:13:24 72° ENE 04:17:54 14° SSE
Cosmos 2315 Rocket 4.1 04:12:21 35° S 04:15:08 72° E 04:21:22 10° N
In-Cosmos 22 Rocket 3.9 04:10:43 10° NNW 04:16:00 70° W 04:16:16 69° WSW
PSLV R/B 4.5 04:22:57 10° NNE 04:26:37 48° E 04:27:19 42° SE
IRS-1C Rocket 4.4 04:26:07 10° NNE 04:31:22 65° ESE 04:34:19 26° S
OAO 3 Copernicus 4.3 04:31:21 58° SSW 04:31:53 62° S 04:36:52 10° E
SL-16 R/B 2.8 04:33:12 42° WSW 04:34:04 45° W 04:39:59 10° NNW
Cosmos 2251 Rocket 3.8 04:35:06 45° W 04:35:48 48° WNW 04:40:53 10° N
SeaSat 1 2.3 04:31:00 10° SSE 04:35:56 89° WSW 04:40:53 10° NNW
Cosmos 1726 4.2 04:39:03 17° NW 04:39:03 17° NW 04:40:26 10° NNW
Cosmos 1943 3.2 04:35:53 45° WSW 04:37:25 62° WNW 04:43:02 10° NNE
Cosmos 2242 Rocket 3.8 04:43:26 48° WSW 04:43:57 51° W 04:48:26 10° N
CZ-2D R/B 3.6 04:39:50 10° N 04:44:11 60° WNW 04:44:59 50° WSW
Cosmos 1455 2.1 04:43:38 61° SSW 04:44:14 79° W 04:48:09 10° N
Meteor 2-10 4.2 04:42:45 38° SW 04:44:49 63° W 04:50:16 10° N
USA 234 4.3 04:39:47 10° NNE 04:45:32 34° NNW 04:49:15 20° W
Cosmos 1110 Rocket 4.2 04:42:01 10° NNW 04:47:00 47° WSW 04:48:50 33° SSW
CZ-2D R/B 2.9 04:45:19 10° N 04:49:59 33° WNW 04:50:57 31° W
Cosmos 2369 Rocket 2.1 04:45:37 10° NNW 04:51:11 66° WSW 04:56:44 10° S
CZ-3 R/B 4.2 03:59:46 10° W 04:51:25 54° SSW 05:02:34 10° SE
CZ-4B R/B 3.2 04:46:08 10° NNE 04:51:28 75° ESE 04:55:45 16° S
Cosmos 2292 Rocket 4.0 04:52:39 10° NNW 04:54:17 27° NW 04:54:17 27° NW
CZ-4B R/B 2.6 04:57:21 10° NNE 05:00:59 85° ESE 05:03:05 25° S
Cosmos 1862 Rocket 3.5 05:01:37 28° SSW 05:03:47 65° W 05:08:10 10° N
BREEZE-M DEB (TANK) 3.7 05:03:10 28° S 05:03:54 34° SE 05:07:23 10° ENE
Cosmos 1862 4.3 05:01:54 10° N 05:05:45 48° E 05:09:36 10° SSE
Pageos (A) 3.3 05:04:17 10° N 05:06:24 63° E 05:07:13 32° SSE
PAYLOAD B 4.2 05:05:43 10° N 05:11:14 70° WNW 05:15:57 14° SSW
Nadezhda 1 Rocket 4.3 05:05:27 10° S 05:11:36 69° E 05:17:52 10° NNE
Cosmos 1933 3.4 05:11:02 10° S 05:15:07 79° E 05:19:14 10° N
Cosmos 389 Rocket 2.5 05:16:15 26° SSW 05:17:58 54° W 05:21:25 10° N
Cosmos 2263 4.3 05:12:50 10° NNW 05:18:29 55° WSW 05:24:06 10° S
ASTRO F (AKARI) 4.5 05:15:12 10° S 05:18:55 78° WSW 05:22:28 10° NNW
Cosmos 1869 3.8 05:17:30 25° SW 05:19:14 38° W 05:22:59 10° N
Cosmos 1943 Rocket 2.1 05:19:32 10° NNW 05:25:14 83° WSW 05:30:52 10° SSE
Cosmos 1825 2.2 05:23:16 10° N 05:27:05 85° E 05:30:51 10° S
ATLAS CENTAUR R/B 1.9 05:23:27 10° NW 05:27:16 34° WSW 05:30:47 10° S
Okean 1-7 3.9 05:24:22 10° S 05:28:31 51° E 05:32:43 10° NNE
CENTAUR R/B 2.5 05:25:17 14° SW 05:30:38 80° WNW 05:37:28 10° NNE
Resurs 1-4 Rocket 4.0 05:31:18 10° NW 05:33:39 13° WNW 05:35:38 11° W
Cosmos 1733 Rocket 3.9 05:30:16 10° NNW 05:34:00 28° W 05:37:46 10° SSW
Cosmos 2074 Rocket 4.0 05:29:00 10° NNW 05:35:07 61° W 05:41:13 10° S
ADEOS Rocket 3.6 05:27:59 10° NNE 05:35:44 89° WNW 05:43:30 10° SSW
Cosmos 2184 Rocket 4.1 05:29:33 10° NNW 05:35:51 64° W 05:42:06 10° S
Cosmos 2327 Rocket 4.5 05:31:40 10° NNW 05:37:39 60° W 05:43:40 10° S
Cosmos 1408 2.5 05:34:08 10° NNW 05:37:51 68° W 05:41:34 10° S
Cosmos 1782 Rocket 3.7 05:34:42 10° N 05:39:03 76° E 05:43:23 10° S
Aureole 3 Rocket 4.2 05:31:48 10° S 05:39:48 86° W 05:45:29 10° N
NAVSTAR 52 R/B(PAM-D 2.3 05:39:50 31° WSW 05:40:29 85° SSE 05:42:08 10° E
COSMOS 2487 4.3 05:38:27 10° SSE 05:41:43 33° ESE 05:44:59 10° NE
Atlas Centaur 2 4.0 05:42:07 10° SSW 05:45:27 17° SSE 05:49:16 10° ESE
Okean O Rocket 3.1 05:44:28 10° NNW 05:47:44 20° WNW 05:50:47 11° WSW
Okean-O 2.7 05:43:24 10° N 05:47:47 62° WNW 05:52:09 10° SSW
PSLV R/B 4.0 05:44:44 10° WNW 05:48:05 49° N 05:51:23 10° ENE
Cosmos 2221 Rocket 3.6 05:43:58 10° SSW 05:48:22 62° W 05:52:46 10° N
ADEOS II 2.1 05:48:46 10° N 05:53:59 67° WNW 05:59:10 10° SSW
ATLAS 5 CENTAUR R/B 2.9 05:50:35 11° WSW 05:54:43 30° NW 05:59:20 10° NNE
COSMO-SKYMED 1 4.3 05:54:29 10° SE 05:58:30 38° ENE 06:02:32 10° N
Cosmos 1908 Rocket 4.2 05:55:58 10° NNW 05:59:55 33° W 06:03:50 10° SSW
NOAA 6 4.4 05:57:01 10° NNE 06:02:10 71° ESE 06:07:18 10° S
Cosmos 1656 Rocket 3.6 05:57:06 10° NNW 06:02:33 86° WSW 06:07:57 10° SSE
Cosmos 2285 Rocket 4.1 05:57:16 10° NNW 06:03:35 61° WSW 06:09:50 10° S
CZ-4B R/B 4.2 05:59:55 10° N 06:04:27 87° WNW 06:08:55 10° SSW
